Flag for Paraguay Weather past 2 weeks in Asuncion, Paraguay

Now
55 °F

Clear.


Feels Like: 55 °F
Forecast: 55 / 79 °F
Wind: 5 mph from South

Location: Asuncion / Aeropuerto

Current Time: Sep 5, 2015 at 12:27:51 AM

Latest Report: Sep 5, 2015 at 12:00 AM


Visibility: 10 mi

Pressure: 30.12 "Hg

Humidity: 82%

Dew point: 50 °F

Location of AsuncionLocation

Historic Weather in Asuncion — Graph

°F

Asuncion temperature yesterday

Maximum temperature yesterday: 77 °F (at 1:00 PM)
Minimum temperature yesterday: 59 °F (at 5:00 AM)
Average temperature yesterday: 67 °F

Past Weeks' High & Low Weather Summary

 TemperatureHumidityPressure
High97 °F (Aug 31, 2:00 PM)100% (Aug 21, 4:00 AM)30.15 "Hg (Aug 21, 4:00 AM)
Low52 °F (Aug 21, 4:00 AM)35% (Aug 27, 3:00 PM)29.65 "Hg (Aug 22, 3:00 PM)
Average73 °F66%29.94 "Hg
* Reported Aug 20 11:00 PM — Sep 4 11:00 PM, Asuncion, Weather by CustomWeather, © 2015

Note: Actual official high and low records may vary slightly from our data, if they occured in-between our weather recording intervals... More about our weather records

Advertising

Asuncion weather history for previous 24 hours

 ConditionsComfort  
Time TempWeatherWind HumidityBarometerVisibility
11:00 PM
Fri, Sep 4
59 °FPassing clouds.6 mph77%30.12 "HgN/A
10:00 PM61 °FClear.6 mph72%30.12 "Hg10 mi
9:00 PM64 °FClear.13 mph64%30.09 "Hg10 mi
8:00 PM66 °FClear.13 mph60%30.09 "Hg10 mi
7:00 PM68 °FClear.13 mph53%30.07 "Hg10 mi
6:00 PM70 °FPassing clouds.14 mph53%30.07 "HgN/A
5:00 PM73 °FClear.15 mph44%30.07 "Hg10 mi
4:00 PM77 °FSunny.14 mph42%30.04 "Hg10 mi
3:00 PM77 °FPassing clouds.13 mph42%30.04 "HgN/A
2:00 PM77 °FPassing clouds.12 mph42%30.04 "HgN/A
1:00 PM77 °FPassing clouds.9 mph42%30.07 "HgN/A
12:00 PM75 °FSunny.10 mph44%30.09 "Hg10 mi
11:00 AM73 °FSunny.9 mph50%30.09 "Hg10 mi
10:00 AM72 °FSunny.8 mph53%30.12 "Hg10 mi
9:30 AM70 °FSunny.8 mph60%30.12 "Hg10 mi
9:00 AM68 °FSunny.7 mph64%30.12 "Hg10 mi
8:30 AM66 °FSunny.10 mph68%30.12 "Hg10 mi
8:00 AM63 °FSunny.12 mph77%30.09 "Hg10 mi
7:30 AM61 °FSunny.10 mph83%30.09 "Hg10 mi
7:00 AM59 °FSunny.7 mph82%30.09 "Hg10 mi
6:00 AM59 °FSunny.10 mph82%30.07 "Hg10 mi
5:00 AM59 °FPassing clouds.9 mph82%30.04 "HgN/A
4:00 AM61 °FPassing clouds.9 mph83%30.04 "HgN/A
3:00 AM61 °FPassing clouds.10 mph88%30.04 "HgN/A
2:00 AM61 °FClear.9 mph83%30.04 "Hg10 mi
1:00 AM63 °FPassing clouds.9 mph77%30.04 "HgN/A
12:00 AM64 °FPassing clouds.8 mph78%30.04 "HgN/A
Weather by CustomWeather, © 2015

See weather overviewHow to use our weather pages